Hurricane Symbol View the latest observations near Atlantic Tropical Storm Alberto.

Station BATN6 - 8518750 - The Battery, NY Image indicating link to RSS feed of recent meteorological observations for station BATN6


Conditions at BATN6 as of
(3:48 pm EDT)
1948 GMT on 06/19/2024:
     

Click on the graph icon in the table below to see a time series plot of the last five days of that observation.

5-day plot - Atmospheric Pressure Atmospheric Pressure (PRES):30.27 in
5-day plot - Air Temperature Air Temperature (ATMP): 80.6 °F
5-day plot - Water Temperature Water Temperature (WTMP): 68.2 °F
NOS Water Level Observation Network Water Level
Previous observations
TIME
(EDT)
5-day plot - Wind Direction
WDIR
 
5-day plot - Wind Speed
WSPD
kts
5-day plot - Wind Gust
GST
kts
5-day plot - Wave Height
WVHT
ft
5-day plot - Dominant Wave Period
DPD
sec
5-day plot - Average Wave Period
APD
sec
5-day plot - Mean Wave Direction
MWD
 
5-day plot - Atmospheric Pressure
PRES
in
5-day plot - Pressure Tendency
PTDY
in
5-day plot - Air Temperature
ATMP
°F
5-day plot - Water Temperature
WTMP
°F
5-day plot - Dew Point
DEWP
°F
5-day plot - Salinity
SAL
psu
5-day plot - Visibility
VIS
nmi
5-day plot - Tide (above MLLW)
TIDE
ft
2024-06-19 03:42 pm-------30.27- 80.6 68.4----
2024-06-19 03:36 pm-------30.27- 80.2 68.4----
2024-06-19 03:30 pm-------30.27- 79.9 68.4----
2024-06-19 03:24 pm-------30.27- 79.9 68.4----
2024-06-19 03:18 pm-------30.27- 79.7 68.5----
2024-06-19 03:12 pm-------30.27- 79.7 68.4----
2024-06-19 03:06 pm-------30.27- 79.5 68.5----
2024-06-19 03:00 pm-------30.27-0.02 80.2 68.4----
2024-06-19 02:54 pm-------30.27- 80.8 68.2----
2024-06-19 02:48 pm-------30.27- 80.2 68.2----
2024-06-19 02:42 pm-------30.27- 80.8 68.2----
2024-06-19 02:36 pm-------30.28- 81.1 68.2----
2024-06-19 02:30 pm-------30.27- 81.3 68.2----
2024-06-19 02:24 pm-------30.27- 81.3 68.0----
2024-06-19 02:18 pm-------30.27- 81.1 68.2----
2024-06-19 02:12 pm-------30.27- 80.8 68.4----
2024-06-19 02:06 pm-------30.27- 81.0 68.4----
2024-06-19 02:00 pm-------30.27-0.02 81.0 68.5----
2024-06-19 01:54 pm-------30.27- 81.3 68.4----
2024-06-19 01:48 pm-------30.27- 81.7 68.4----
2024-06-19 01:42 pm-------30.27- 81.1 68.2----
2024-06-19 01:36 pm-------30.28- 81.3 67.8----
2024-06-19 01:30 pm-------30.28- 82.2 68.0----
2024-06-19 01:24 pm-------30.28- 81.5 68.2----
2024-06-19 01:18 pm-------30.28- 81.7 68.0----
2024-06-19 01:12 pm-------30.28- 81.7 67.6----
2024-06-19 01:06 pm-------30.28- 81.5 66.9----
2024-06-19 01:00 pm-------30.28-0.02 82.4 67.1----
2024-06-19 12:54 pm-------30.28- 81.9 66.9----
2024-06-19 12:48 pm-------30.28- 81.7 66.9----
2024-06-19 12:42 pm-------30.29- 82.6 67.1----
2024-06-19 12:36 pm-------30.29- 82.8 67.3----
2024-06-19 12:30 pm-------30.29- 81.0 67.3----
2024-06-19 12:24 pm-------30.29- 81.9 66.9----
2024-06-19 12:18 pm-------30.29- 82.9 66.9----
2024-06-19 12:12 pm-------30.29- 81.5 67.1----
2024-06-19 12:06 pm-------30.29- 81.1 67.3----
2024-06-19 12:00 pm-------30.29-0.02 81.3 67.3----
2024-06-19 11:54 am-------30.29- 81.3 67.3----
2024-06-19 11:48 am-------30.29- 80.8 67.3----
2024-06-19 11:42 am-------30.29- 80.4 66.9----
2024-06-19 11:36 am-------30.29- 82.2 66.4----
2024-06-19 11:30 am-------30.29- 81.7 66.6----
2024-06-19 11:24 am-------30.29- 81.9 66.7----
2024-06-19 11:18 am-------30.29- 81.5 66.4----
2024-06-19 11:12 am-------30.29- 80.6 66.2----
2024-06-19 11:06 am-------30.29- 81.5 66.2----
2024-06-19 11:00 am-------30.29-0.01 81.9 66.2----
2024-06-19 10:54 am-------30.30- 81.3 66.2----
2024-06-19 10:48 am-------30.30- 79.9 66.2----
2024-06-19 10:42 am-------30.30- 80.4 65.8----
2024-06-19 10:36 am-------30.30- 78.8 65.8----
2024-06-19 10:30 am-------30.30- 78.3 66.0----
2024-06-19 10:24 am-------30.30- 78.3 66.2----
2024-06-19 10:18 am-------30.30- 77.5 66.2----
2024-06-19 10:12 am-------30.30- 77.7 66.7----
2024-06-19 10:06 am-------30.30- 77.5 66.7----
2024-06-19 10:00 am-------30.30+0.00 76.6 66.6----
2024-06-19 09:54 am-------30.30- 76.8 66.7----
2024-06-19 09:48 am-------30.30- 75.6 66.6----
2024-06-19 09:42 am-------30.30- 75.2 66.4----
2024-06-19 09:36 am-------30.31- 74.5 66.0----
2024-06-19 09:30 am-------30.31- 74.5 65.7----
2024-06-19 09:24 am-------30.31- 74.5 65.7----
2024-06-19 09:18 am-------30.31- 74.5 65.8----
2024-06-19 09:12 am-------30.31- 74.5 65.8----
2024-06-19 09:06 am-------30.31- 74.3 65.7----
2024-06-19 09:00 am-------30.31+0.03 73.4 65.7----
2024-06-19 08:54 am-------30.31- 73.6 65.8----
2024-06-19 08:48 am-------30.31- 73.4 65.8----
2024-06-19 08:42 am-------30.31- 73.2 66.0----
2024-06-19 08:36 am-------30.31- 72.7 66.2----
2024-06-19 08:30 am-------30.31- 71.8 66.0----
2024-06-19 08:24 am-------30.30- 71.4 66.0----
2024-06-19 08:18 am-------30.30- 71.6 66.0----
2024-06-19 08:12 am-------30.30- 71.4 66.0----
2024-06-19 08:06 am-------30.30- 71.4 66.0----
2024-06-19 08:00 am-------30.30+0.03 71.6 65.8----
2024-06-19 07:54 am-------30.30- 71.2 65.8----
2024-06-19 07:48 am-------30.31-- 65.7----
2024-06-19 07:42 am-------30.31-- 65.7----
2024-06-19 07:36 am-------30.30-- 65.7----
2024-06-19 07:30 am-------30.30- 71.1 65.8----
2024-06-19 07:24 am-------30.30- 71.2 65.8----
2024-06-19 07:18 am-------30.30- 71.2 65.8----
2024-06-19 07:12 am-------30.30- 71.4 65.8----
2024-06-19 07:06 am-------30.30- 71.2 65.8----
2024-06-19 07:00 am-------30.29+0.04 71.2 65.7----
2024-06-19 06:54 am-------30.29- 71.1 65.7----
2024-06-19 06:48 am-------30.29- 71.2 65.7----
2024-06-19 06:42 am-------30.29- 71.1 65.5----
2024-06-19 06:36 am-------30.29- 70.9 65.3----
2024-06-19 06:30 am-------30.28- 70.3 65.3----
2024-06-19 06:24 am-------30.28- 70.2 65.1----
2024-06-19 06:18 am-------30.28- 70.2 65.1----
2024-06-19 06:12 am-------30.29- 70.3 64.9----
2024-06-19 06:06 am-------30.28- 70.5 64.9----
2024-06-19 06:00 am-------30.28+0.04 70.3 65.1----
2024-06-19 05:54 am-------30.28- 70.3 65.1----
2024-06-19 05:48 am-------30.28- 70.3 65.5----
2024-06-19 05:42 am-------30.28- 70.3 65.5----
2024-06-19 05:36 am-------30.28- 70.3 65.5----
2024-06-19 05:30 am-------30.27- 70.2 65.5----
2024-06-19 05:24 am-------30.27- 70.2 65.3----
2024-06-19 05:18 am-------30.27- 69.8 65.1----
2024-06-19 05:12 am-------30.27- 69.8 65.1----
2024-06-19 05:06 am-------30.27- 70.2 65.1----
2024-06-19 05:00 am-------30.27+0.04 70.2 65.1----
2024-06-19 04:54 am-------30.27- 70.3 64.9----
2024-06-19 04:48 am-------30.27- 70.3 65.1----
2024-06-19 04:42 am-------30.27- 70.2 65.3----
2024-06-19 04:36 am-------30.26- 70.3 65.5----
2024-06-19 04:30 am-------30.26- 70.5 65.5----
2024-06-19 04:24 am-------30.26- 70.7 65.8----
2024-06-19 04:18 am-------30.26- 70.7 66.7----
2024-06-19 04:12 am-------30.26- 70.7 66.7----
2024-06-19 04:06 am-------30.26- 70.7 66.7----
2024-06-19 04:00 am-------30.25+0.01 70.7 66.7----
2024-06-19 03:54 am-------30.25- 70.7 66.9----
2024-06-19 03:48 am-------30.25- 70.7 66.9----
2024-06-19 03:42 am-------30.25- 70.7 66.9----
2024-06-19 03:36 am-------30.25- 70.7 66.9----
2024-06-19 03:30 am-------30.25- 70.9 66.9----
2024-06-19 03:24 am-------30.24- 70.7 66.9----
2024-06-19 03:18 am-------30.25- 70.7 66.9----
2024-06-19 03:12 am-------30.25- 70.7 66.9----
2024-06-19 03:06 am-------30.24- 70.9 66.9----
2024-06-19 03:00 am-------30.24+0.00 70.9 67.1----
2024-06-19 02:54 am-------30.24- 71.1 67.1----
2024-06-19 02:48 am-------30.24- 71.1 67.1----
2024-06-19 02:42 am-------30.24- 71.2 67.1----
2024-06-19 02:36 am-------30.24- 71.4 67.1----
2024-06-19 02:30 am-------30.24- 71.6 66.9----
2024-06-19 02:24 am-------30.24- 71.6 66.9----
2024-06-19 02:18 am-------30.24- 71.6 66.7----
2024-06-19 02:12 am-------30.24- 71.8 66.7----
2024-06-19 02:06 am-------30.24- 71.8 66.7----
2024-06-19 02:00 am-------30.24+0.00 72.0 66.7----
2024-06-19 01:54 am-------30.24- 72.0 66.7----
2024-06-19 01:48 am-------30.24- 72.1 66.7----
2024-06-19 01:42 am-------30.24- 72.5 66.7----
2024-06-19 01:36 am-------30.24- 72.7 66.7----
2024-06-19 01:30 am-------30.24-- 66.7----
2024-06-19 01:24 am-------30.24-- 66.7----
2024-06-19 01:18 am-------30.24- 73.4 66.7----
2024-06-19 01:12 am-------30.24- 73.8 66.7----
2024-06-19 01:06 am-------30.24- 73.8 66.7----
2024-06-19 01:00 am-------30.24+0.02 73.9 66.7----
2024-06-19 12:54 am-------30.24- 74.3 66.7----
2024-06-19 12:48 am-------30.24- 74.3 66.7----
2024-06-19 12:42 am-------30.24- 74.3 66.7----
2024-06-19 12:36 am-------30.24- 74.3 66.7----
2024-06-19 12:30 am-------30.24- 74.3 66.7----
2024-06-19 12:24 am-------30.24- 74.3 66.7----
2024-06-19 12:18 am-------30.24- 74.3 66.7----
2024-06-19 12:12 am-------30.24- 74.7 66.9----
2024-06-19 12:06 am-------30.24- 74.7 66.9----
2024-06-19 12:00 am-------30.24+0.05 74.8 66.7----
2024-06-18 11:54 pm-------30.24- 75.2 66.6----
2024-06-18 11:48 pm-------30.24- 75.2 66.6----
2024-06-18 11:42 pm-------30.24- 75.2 66.6----
2024-06-18 11:36 pm-------30.24- 75.6 66.4----
2024-06-18 11:30 pm-------30.24- 75.6 66.6----
2024-06-18 11:24 pm-------30.23- 75.7 66.4----
2024-06-18 11:18 pm-------30.23- 75.9 66.4----
2024-06-18 11:12 pm-------30.23- 76.1 66.4----
2024-06-18 11:06 pm-------30.23- 76.3 66.2----
2024-06-18 11:00 pm-------30.23+0.05 76.6 66.2----
2024-06-18 10:54 pm-------30.23- 76.6 66.0----
2024-06-18 10:48 pm-------30.23- 76.6 65.8----
2024-06-18 10:42 pm-------30.22- 76.8 65.8----
2024-06-18 10:36 pm-------30.22- 77.0 65.8----
2024-06-18 10:30 pm-------30.22- 76.8 65.7----
2024-06-18 10:24 pm-------30.22- 77.0 65.7----
2024-06-18 10:18 pm-------30.22- 77.0 65.7----
2024-06-18 10:12 pm-------30.22- 77.2 66.2----
2024-06-18 10:06 pm-------30.22- 77.2 66.6----
2024-06-18 10:00 pm-------30.22+0.06 77.0 66.6----
2024-06-18 09:54 pm-------30.22- 77.2 66.4----
2024-06-18 09:48 pm-------30.21- 77.5 66.4----
2024-06-18 09:42 pm-------30.21- 77.4 66.4----
2024-06-18 09:36 pm-------30.21- 77.5 66.4----
2024-06-18 09:30 pm-------30.20- 77.5 66.4----
2024-06-18 09:24 pm-------30.20- 77.4 66.4----
2024-06-18 09:18 pm-------30.19- 77.7 66.4----
2024-06-18 09:12 pm-------30.19- 77.5 66.4----
2024-06-18 09:06 pm-------30.19- 77.7 66.6----
2024-06-18 09:00 pm-------30.19+0.04 78.1 66.6----
2024-06-18 08:54 pm-------30.19- 77.5 66.6----
2024-06-18 08:48 pm-------30.18- 77.9 66.6----
2024-06-18 08:42 pm-------30.18- 78.1 66.4----
2024-06-18 08:36 pm-------30.18- 78.3 66.4----
2024-06-18 08:30 pm-------30.18- 78.3 66.4----
2024-06-18 08:24 pm-------30.18- 78.6 66.4----
2024-06-18 08:18 pm-------30.18- 78.4 66.4----
2024-06-18 08:12 pm-------30.17- 79.0 66.4----
2024-06-18 08:06 pm-------30.18- 79.2 66.2----
2024-06-18 08:00 pm-------30.18+0.02 79.5 66.0----
2024-06-18 07:54 pm-------30.17- 79.0 66.0----
2024-06-18 07:48 pm-------30.17- 79.0 66.0----
2024-06-18 07:42 pm-------30.18- 79.0 66.0----
2024-06-18 07:36 pm-------30.17- 79.2 66.0----
2024-06-18 07:30 pm-------30.17- 78.8 66.2----
2024-06-18 07:24 pm-------30.17- 79.0 66.4----
2024-06-18 07:00 pm-------30.16-0.01 79.9 67.5----
2024-06-18 06:54 pm-------30.16- 79.9 67.8----
2024-06-18 06:48 pm-------30.16- 79.7 67.8----
2024-06-18 06:42 pm-------30.15- 79.5 68.0----
2024-06-18 06:36 pm-------30.16- 79.7 67.8----
2024-06-18 06:30 pm-------30.15- 79.7 67.5----
2024-06-18 06:24 pm-------30.15- 79.7 67.3----
2024-06-18 06:18 pm-------30.15- 80.1 67.3----
2024-06-18 06:12 pm-------30.15- 81.3 67.1----
2024-06-18 06:06 pm-------30.15- 81.5 67.1----
2024-06-18 06:00 pm-------30.15-0.03 81.9 66.9----
2024-06-18 05:54 pm-------30.15- 81.7 66.7----
2024-06-18 05:48 pm-------30.16- 82.2 66.6----
2024-06-18 05:42 pm-------30.16- 82.2 66.4----
2024-06-18 05:36 pm-------30.16- 81.7 66.2----
2024-06-18 05:30 pm-------30.16- 82.0 66.2----
2024-06-18 05:24 pm-------30.16- 81.9 65.8----
2024-06-18 05:18 pm-------30.16- 82.0 66.0----
2024-06-18 05:12 pm-------30.16- 81.7 66.0----
2024-06-18 05:06 pm-------30.16- 81.7 66.2----
2024-06-18 05:00 pm-------30.16-0.03 81.5 66.2----
2024-06-18 04:54 pm-------30.16- 81.1 66.2----
2024-06-18 04:48 pm-------30.17- 81.7 66.2----
2024-06-18 04:42 pm-------30.17- 82.0 66.2----
2024-06-18 04:36 pm-------30.17- 81.7 66.2----
2024-06-18 04:30 pm-------30.17- 81.5 66.0----
2024-06-18 04:24 pm-------30.17- 81.1 65.7----
2024-06-18 04:18 pm-------30.17- 80.4 65.7----
2024-06-18 04:12 pm-------30.17- 80.4 65.5----
2024-06-18 04:06 pm-------30.17- 81.0 66.0----
2024-06-18 04:00 pm-------30.17-0.03 80.6 66.7----
2024-06-18 03:54 pm-------30.17- 81.0 66.9----